Regional Weather Roundup
Issued by NWS

Home | Current Version | Previous Version | Text Only | Print | Product List | Glossary On
Versions: 1 2 3 4 5 6 7 8 9 10 11 12 13 14 15 16 17 18 19 20 21 22 23 24 25 26 27 28 29 30 31 32 33 34 35 36 37 38 39 40 41 42 43 44 45 46 47 48 49 50
833
ASUS43 KDMX 250408
RWRIA

WEATHER ROUNDUP FOR IOWA
NATIONAL WEATHER SERVICE DES MOINES IA
1100 PM CDT SUN JUL 24 2016

NOTE: "FAIR" INDICATES FEW OR NO CLOUDS BELOW 12,000 FEET WITH NO
SIGNIFICANT WEATHER AND/OR OBSTRUCTIONS TO VISIBILITY.

* - THESE STATIONS ARE NOT NWS STATIONS...THUS NOT UNDER NWS
QUALITY CONTROL.  THEY ALSO DO NOT REPORT WEATHER SUCH
AS PRECIPITATION OR FOG.

IAZ001>003-012>014-020>022-031>034-043>046-250500-
   NORTHWEST IOWA

CITY           SKY/WX    TMP DP  RH WIND       PRES   REMARKS
CARROLL *      CLOUDY    70  66  88 N7        30.05R
CHEROKEE *     PTCLDY    67  65  91 CALM      30.08S
LE MARS *      CLOUDY    70  66  88 CALM      30.09S
SHELDON *      CLEAR     66  64  94 SW6       30.07R
SIOUX CITY     PTCLDY    68  64  87 W3        30.07S
SPENCER        CLEAR     65  62  90 W7        30.07R
STORM LAKE *   CLEAR     68  63  83 NW8       30.09R
$$

IAZ055>058-069>071-079>083-090>094-250500-
   SOUTHWEST IOWA

CITY           SKY/WX    TMP DP  RH WIND       PRES   REMARKS
ATLANTIC *     CLEAR     70  68  94 CALM      30.04S
CLARINDA *       N/A     72  70  94 MISG      30.05R
COUNCIL BLFS *   N/A     72  68  88 N7        30.05R
CRESTON *      CLOUDY    72  66  83 N7        30.05R
HARLAN  *      CLEAR     68  66  94 CALM      30.09R
LAMONI         CLOUDY    74  68  81 N9        30.00S
RED OAK *      CLEAR     72  68  88 CALM      30.03R
SHENANDOAH *   CLEAR     70  70 100 S6        30.04R
$$

IAZ047>049-059>061-072>074-084-250500-
   CENTRAL IOWA

CITY           SKY/WX    TMP DP  RH WIND       PRES   REMARKS
AMES           CLEAR     72  66  81 N10       30.02R
ANKENY *         N/A    N/A N/A N/A MISG        N/A
BOONE *          N/A     70  66  88 NW7       30.03R
CHARITON *       N/A    N/A N/A N/A MISG        N/A
DES MOINES     CLOUDY    77  66  68 N7        30.01R
GRINNELL*      CLOUDY    71  67  87 NW6       30.01S
KNOXVILLE *    CLOUDY    73  68  83 NW7       29.99R
MARSHALLTOWN   CLEAR     68  67  96 NW6       30.00R
NEWTON *       CLOUDY    73  68  83 N9        30.00R
PELLA *        CLOUDY    73  68  84 N5        30.00S
PERRY *          N/A     69  67  93 N3        30.04R
$$

IAZ004>006-015-016-023>025-035-036-250500-
   NORTH CENTRAL IOWA

CITY           SKY/WX    TMP DP  RH WIND       PRES   REMARKS
ALGONA *       CLEAR     68  66  94 W8        30.05R
ESTHERVILLE    CLEAR     66  64  93 W6        30.05R
FORT DODGE *   CLOUDY    70  64  83 CALM      30.06R
MASON CITY     PTCLDY    67  63  87 W7        30.05R
FOREST CITY *    N/A     64  64 100 W6        30.04R
IOWA FALLS *     N/A     69  66  89 NW6       30.04R
$$

IAZ007>011-017>019-026>030-037>042-050>054-066-250500-
   NORTHEAST IOWA

CITY           SKY/WX    TMP DP  RH WIND       PRES   REMARKS
CEDAR RAPIDS   CLOUDY    70  68  93 NW6       29.96S
CHARLES CITY * CLOUDY    68  68 100 W6        30.02R
CLINTON *      CLOUDY    72  69  90 NW6       29.94R
DECORAH *      CLOUDY    70  66  88 VRB5      29.98R
DUBUQUE        PTCLDY    72  66  81 NW10      29.96S
MONTICELLO *   PTCLDY    72  66  83 NW7       29.95S
OELWEIN *      PTCLDY    68  64  88 NW7       30.00R
WATERLOO       CLOUDY    70  65  84 NW5       29.98R
$$

IAZ064-065-067-068-078-250500-
   EAST CENTRAL IOWA

CITY           SKY/WX    TMP DP  RH WIND       PRES   REMARKS
DAVENPORT      CLOUDY    72  68  87 NW7       29.94S
IOWA CITY      CLOUDY    76  66  71 NW13      29.97R
MUSCATINE *    MOCLDY    73  68  83 N6        29.95R
QUAD CITIES    CLOUDY    78  68  71 NW6       29.93R HX  80
$$

IAZ062-063-075>077-085>089-095>099-250500-
   SOUTHEAST IOWA

CITY           SKY/WX    TMP DP  RH WIND       PRES   REMARKS
BURLINGTON     CLOUDY    77  73  87 NW5       29.93R
FAIRFIELD *    CLOUDY    72  68  88 NW7       29.95F
KEOKUK *       CLOUDY    73  72  94 CALM      29.94R
CENTERVILLE *    N/A     73  68  83 CALM      30.00S
OTTUMWA        CLOUDY    73  68  84 NW8       29.97S
WASHINGTON *   CLOUDY    73  70  88 NW13      29.96F
$$

ABBREVIATIONS USED IN REMARKS
   TC - TEMPERATURES IN CELSIUS
  WCI - WIND CHILL INDEX
   HX - HEAT INDEX
  VSB - VISIBILITY
$$





USA.gov is the U.S. government's official web portal to all federal, state and local government web resources and services.